Harvard, Illinois, United States (60033)
Lat: 42.42N, Lon: 88.61W
Wx Zone: ILZ005
Local Info
Past Weather Observations for Today

NOTE: This archive is for the closest National Weather Service station to Harvard. Information may differ from the station used for current weather conditions.

Time Weather Temperature Dewpoint Humidity Pressure Winds Precip Visibility
19:15
Mostly Cloudy
41°F / 5°C 23°F / -5°C 49% 30.09 in
(1019 mb)
E 6.9 mph
(E 11 kph)
- 10SM
18:55
Partly Cloudy
41°F / 5°C 21°F / -6°C 45% 30.12 in
(1020 mb)
ENE 6.9 mph
(ENE 11 kph)
- 10SM
18:35
Clear
43°F / 6°C 23°F / -5°C 46% 30.12 in
(1020 mb)
E 5.8 mph
(E 9 kph)
- 10SM
18:15
Clear
43°F / 6°C 23°F / -5°C 46% 30.12 in
(1020 mb)
ENE 6.9 mph
(ENE 11 kph)
- 10SM
17:55
Clear
43°F / 6°C 23°F / -5°C 46% 30.12 in
(1020 mb)
E 6.9 mph
(E 11 kph)
- 10SM
17:35
Clear
45°F / 7°C 23°F / -5°C 42% 30.12 in
(1020 mb)
E 8.1 mph
(E 13 kph)
- 10SM
17:15
Clear
45°F / 7°C 21°F / -6°C 39% 30.12 in
(1020 mb)
E 9.2 mph
(E 15 kph)
- 10SM
16:55
Clear
46°F / 8°C 23°F / -5°C 40% 30.12 in
(1020 mb)
ENE 9.2 mph
(ENE 15 kph)
- 10SM
16:35
Clear
46°F / 8°C 23°F / -5°C 40% 30.12 in
(1020 mb)
ENE 9.2 mph
(ENE 15 kph)
- 10SM
16:15
Clear
46°F / 8°C 23°F / -5°C 40% 30.12 in
(1020 mb)
E 5.8 mph
(E 9 kph)
- 10SM
15:55
Clear
48°F / 9°C 23°F / -5°C 37% 30.12 in
(1020 mb)
E 6.9 mph
(E 11 kph)
- 10SM
15:35
Clear
48°F / 9°C 23°F / -5°C 37% 30.12 in
(1020 mb)
SE 6.9 mph
(SE 11 kph)
- 10SM
15:15
Clear
50°F / 10°C 25°F / -4°C 37% 30.12 in
(1020 mb)
E 9.2 mph
(E 15 kph)
- 10SM
14:55
Clear
50°F / 10°C 25°F / -4°C 37% 30.12 in
(1020 mb)
ENE 9.2 mph
(ENE 15 kph)
- 10SM
14:35
Clear
50°F / 10°C 25°F / -4°C 37% 30.12 in
(1020 mb)
E 10.4 mph
(E 17 kph)
- 10SM
14:15
Clear
50°F / 10°C 25°F / -4°C 37% 30.12 in
(1020 mb)
ENE 8.1 mph
(ENE 13 kph)
- 10SM
13:55
Clear
52°F / 11°C 25°F / -4°C 35% 30.15 in
(1021 mb)
E 10.4 mph
(E 17 kph)
- 10SM
13:35
Clear
50°F / 10°C 25°F / -4°C 37% 30.15 in
(1021 mb)
ENE 10.4 mph
(ENE 17 kph)
- 10SM
13:15
Clear
50°F / 10°C 25°F / -4°C 37% 30.15 in
(1021 mb)
E 11.5 mph
(E 19 kph)
- 10SM
12:55
Clear
50°F / 10°C 25°F / -4°C 37% 30.15 in
(1021 mb)
E 11.5 mph
(E 19 kph)
- 10SM
12:35
Clear
48°F / 9°C 25°F / -4°C 40% 30.15 in
(1021 mb)
SE 6.9 mph
(SE 11 kph)
- 10SM
12:15
Clear
48°F / 9°C 25°F / -4°C 40% 30.15 in
(1021 mb)
E 8.1 mph
(E 13 kph)
- 10SM
11:55
Clear
48°F / 9°C 25°F / -4°C 40% 30.18 in
(1022 mb)
SE 6.9 mph
(SE 11 kph)
- 10SM
11:35
Clear
48°F / 9°C 25°F / -4°C 40% 30.18 in
(1022 mb)
E 5.8 mph
(E 9 kph)
- 10SM
11:15
Clear
48°F / 9°C 25°F / -4°C 40% 30.18 in
(1022 mb)
SE 11.5 mph
(SE 19 kph)
- 10SM
10:55
Clear
46°F / 8°C 27°F / -3°C 46% 30.18 in
(1022 mb)
SE 8.1 mph
(SE 13 kph)
- 10SM
10:35
Clear
46°F / 8°C 27°F / -3°C 46% 30.18 in
(1022 mb)
SE 9.2 mph
(SE 15 kph)
- 10SM
10:15
Clear
45°F / 7°C 27°F / -3°C 49% 30.18 in
(1022 mb)
E 8.1 mph
(E 13 kph)
- 10SM
09:55
Clear
45°F / 7°C 27°F / -3°C 49% 30.18 in
(1022 mb)
E 9.2 mph
(E 15 kph)
- 10SM
09:35
Clear
45°F / 7°C 27°F / -3°C 49% 30.18 in
(1022 mb)
ESE 11.5 mph
(ESE 19 kph)
- 10SM
09:15
Clear
43°F / 6°C 27°F / -3°C 53% 30.18 in
(1022 mb)
E 12.7 mph
(E 20 kph)
- 10SM
08:55
Clear
43°F / 6°C 28°F / -2°C 57% 30.18 in
(1022 mb)
NE 5.8 mph
(NE 9 kph)
- 10SM
08:35
Clear
41°F / 5°C 28°F / -2°C 61% 30.18 in
(1022 mb)
E 8.1 mph
(E 13 kph)
- 10SM
08:15
Clear
39°F / 4°C 28°F / -2°C 65% 30.18 in
(1022 mb)
ENE 8.1 mph
(ENE 13 kph)
- 10SM
07:55
Clear
39°F / 4°C 28°F / -2°C 65% 30.18 in
(1022 mb)
ENE 5.8 mph
(ENE 9 kph)
- 10SM
07:35
Clear
37°F / 3°C 30°F / -1°C 75% 30.18 in
(1022 mb)
NE 8.1 mph
(NE 13 kph)
- 10SM
07:15
Clear
36°F / 2°C 30°F / -1°C 81% 30.18 in
(1022 mb)
ENE 5.8 mph
(ENE 9 kph)
- 10SM
06:55
Clear
34°F / 1°C 30°F / -1°C 87% 30.18 in
(1022 mb)
Calm - 10SM
06:35
Clear
32°F / 0°C 30°F / -1°C 93% 30.18 in
(1022 mb)
Calm - 10SM
06:15
Clear
30°F / -1°C 28°F / -2°C 93% 30.15 in
(1021 mb)
Calm - 10SM
05:55
Clear
27°F / -3°C 25°F / -4°C 93% 30.15 in
(1021 mb)
Calm - 10SM
05:35
Clear
25°F / -4°C 25°F / -4°C 100% 30.15 in
(1021 mb)
Calm - 10SM
05:15
Clear
25°F / -4°C 25°F / -4°C 100% 30.15 in
(1021 mb)
Calm - 10SM
04:55
Clear
23°F / -5°C 23°F / -5°C 100% 30.15 in
(1021 mb)
Calm - 10SM
04:35
Clear
25°F / -4°C 23°F / -5°C 93% 30.15 in
(1021 mb)
SSW 3.5 mph
(SSW 6 kph)
- 10SM
04:15
Clear
27°F / -3°C 25°F / -4°C 93% 30.15 in
(1021 mb)
Calm - 10SM
03:55
Clear
25°F / -4°C 25°F / -4°C 100% 30.15 in
(1021 mb)
SW 5.8 mph
(SW 9 kph)
- 10SM
03:35
Clear
27°F / -3°C 27°F / -3°C 100% 30.15 in
(1021 mb)
SSW 3.5 mph
(SSW 6 kph)
- 10SM
03:15
Clear
27°F / -3°C 27°F / -3°C 100% 30.12 in
(1020 mb)
Calm - 10SM
02:55
Clear
27°F / -3°C 25°F / -4°C 93% 30.12 in
(1020 mb)
Calm - 10SM
02:35
Clear
30°F / -1°C 28°F / -2°C 93% 30.12 in
(1020 mb)
Calm - 10SM
02:15
Clear
30°F / -1°C 28°F / -2°C 93% 30.12 in
(1020 mb)
Calm - 10SM
01:55
Clear
30°F / -1°C 28°F / -2°C 93% 30.12 in
(1020 mb)
Calm - 10SM
01:35
Clear
30°F / -1°C 28°F / -2°C 93% 30.12 in
(1020 mb)
NE 3.5 mph
(NE 6 kph)
- 10SM
01:15
Clear
30°F / -1°C 27°F / -3°C 86% 30.12 in
(1020 mb)
NE 5.8 mph
(NE 9 kph)
- 10SM
00:55
Clear
32°F / 0°C 28°F / -2°C 87% 30.12 in
(1020 mb)
Calm - 10SM
00:35
Clear
32°F / 0°C 28°F / -2°C 87% 30.12 in
(1020 mb)
Calm - 10SM
00:15
Clear
32°F / 0°C 28°F / -2°C 87% 30.12 in
(1020 mb)
E 3.5 mph
(E 6 kph)
- 10SM
Time Weather Temperature Dewpoint Humidity Pressure Winds Precip Visibility


Weather for websites

WeatherForYou.com, LLC is not responsible for any damages or problems caused by this service. Current weather conditions are obtained from the closest station including government and personal stations which may have varying degrees of accuracy. Weather forecasts are derived from the NOAA NDFD. Like all things, this site belongs to Jesus Christ... He just trusts me to maintain it. If you have any questions or comments email webmaster@weatherforyou.com

Copyright © 2014, WeatherForYou.com LLC. All rights reserved.